Weather in Ryzley

Russia / Ulyanovsk Oblast     53°11′37″N   46°58′16″E
temp.,
°C
wind,
m/s
gust,
m/s
humid.,
%
clouds,
%
prec.,
mm/h
press.,
hPa
HPBL,
m
11 may, tue
tue1101:00+15ene51464100 0.0 1017331
04:00+14ene5146397 0.0 1018363
07:00+15e5126695 0.0 1020569
10:00+15sse5779100 0.0 1023730
13:00+13sse4479100 0.0 1025517
16:00+15ese3569100 0.3 1026666
19:00+13e227599 0.0 102637
22:00+12sse1171100 0.0 102713
12 may, wed
wed1201:00+12wnw2273100 0.1 102647
04:00+11ne3690100 0.3 1025157
07:00+13e41488100 0.2 1025766
10:00+13ene61582100 0.3 1024591
13:00+15e7147497 0.0 1024696
16:00+18ese7116695 0.0 1024887
19:00+17ese5117393 0.0 1024696
22:00+15e4127998 0.0 1024387
13 may, thu
thu1301:00+13e397991 0.0 1024239
04:00+13ene4116995 0.0 1023255
07:00+13ese51568100 0.1 1023459
10:00+12ese61494100 2.9 1023425
13:00+18ese6116756 0.1 1022459
16:00+22ese8145755 0.1 10211406
19:00+20se7145576 0.1 1020634
22:00+14sse368174 1.1 102198
14 may, fri
fri1401:00+13ese378715 1.3 1021119
04:00+12se348032 1.5 102157
07:00+14se247682 0.0 1022119
10:00+21sse475975 0.0 1021525
13:00+25sse693873 0.0 10211045
16:00+25sse61143100 0.0 10211329
19:00+22sse495719 0.0 1020224
22:00+17sse48665 0.0 1021136
15 may, sat
sat1501:00+16se34595 0.0 102151
04:00+14se33595 0.0 102135
07:00+16se37635 0.0 1021159
10:00+23sse5939100 0.0 1021573
13:00+26s7103057 0.0 10201291
16:00+27s693424 0.0 10192123
19:00+23sse495160 0.0 1018186
22:00+18sse48555 0.0 101898